Location: Les Coudrans
(46.1056°N, 1.1158°W)
Time: 02:04:48
(UTC+00:00)

DMSP B5D2-2 - Pass Details

Date: 22 June 2021
Orbit: 789 x 807 km, 98.3° (Epoch: 02 August)

Event Time Altitude Azimuth Distance (km) Brightness Sun altitude
Rises 20:54:25 0° 0° (N) 3,321 8.1 -8.0°
Reaches altitude 10° 20:57:26 10° 343° (NNW) 2,383 7.7 -8.3°
Maximum altitude 21:00:53 18° 301° (WNW) 1,871 7.2 -8.7°
Drops below altitude 10° 21:04:19 10° 260° (W) 2,365 7.0 -9.1°
Sets 21:07:19 0° 242° (WSW) 3,287 7.5 -9.5°
